TimeEST,TemperatureF,Dew PointF,Humidity,Sea Level PressureIn,VisibilityMPH,Wind Direction,Wind SpeedMPH,Gust SpeedMPH,PrecipitationIn,Events,Conditions,WindDirDegrees,DateUTC
12:58 AM,55.8,46.9,72,30.09,10.0,NW,6.9,-,N/A,,Clear,320,2013-11-08 05:58:00
1:58 AM,53.8,45.3,73,30.10,10.0,NNW,8.1,-,N/A,,Clear,340,2013-11-08 06:58:00
2:58 AM,52.3,43.3,71,30.12,10.0,NNW,6.9,-,N/A,,Clear,340,2013-11-08 07:58:00
3:58 AM,51.3,41.5,69,30.13,10.0,North,9.2,-,N/A,,Clear,360,2013-11-08 08:58:00
4:58 AM,50.2,40.5,69,30.16,10.0,North,11.5,-,N/A,,Clear,350,2013-11-08 09:58:00
5:13 AM,50.0,41.0,71,30.15,9.0,North,9.2,-,N/A,,Clear,360,2013-11-08 10:13:00
5:28 AM,50.0,39.2,66,30.16,10.0,North,8.1,-,N/A,,Clear,360,2013-11-08 10:28:00
5:58 AM,48.9,39.4,70,30.18,9.0,North,8.1,-,N/A,,Clear,10,2013-11-08 10:58:00
6:38 AM,48.2,39.2,71,30.19,6.0,North,6.9,-,N/A,,Haze,10,2013-11-08 11:38:00
6:58 AM,47.5,39.0,72,30.21,6.0,North,9.2,-,N/A,,Haze,10,2013-11-08 11:58:00
7:58 AM,49.5,39.0,67,30.24,7.0,NNE,10.4,-,N/A,,Clear,20,2013-11-08 12:58:00
8:58 AM,52.9,38.8,59,30.26,10.0,NE,12.7,-,N/A,,Clear,40,2013-11-08 13:58:00
9:53 AM,55.4,37.4,51,30.27,2.5,NNE,18.4,26.5,N/A,,Haze,30,2013-11-08 14:53:00
9:58 AM,55.4,37.4,51,30.28,1.2,NE,17.3,25.3,N/A,,Haze,40,2013-11-08 14:58:00
10:03 AM,55.4,37.4,51,30.27,1.0,NE,18.4,23.0,N/A,,Haze,40,2013-11-08 15:03:00
10:08 AM,55.4,37.4,51,30.27,1.0,NE,12.7,23.0,N/A,,Haze,40,2013-11-08 15:08:00
10:18 AM,57.2,37.4,48,30.27,1.0,NNE,15.0,-,N/A,,Haze,30,2013-11-08 15:18:00
10:23 AM,57.2,37.4,48,30.27,1.5,NNE,15.0,-,N/A,,Haze,20,2013-11-08 15:23:00
10:28 AM,57.2,37.4,48,30.27,4.0,NNE,10.4,-,N/A,,Haze,30,2013-11-08 15:28:00
10:58 AM,59.2,39.4,48,30.28,10.0,NE,9.2,-,N/A,,Clear,40,2013-11-08 15:58:00
11:58 AM,61.2,38.3,43,30.26,10.0,NE,10.4,-,N/A,,Clear,50,2013-11-08 16:58:00
12:58 PM,62.6,39.2,42,30.24,10.0,NE,5.8,17.3,N/A,,Clear,50,2013-11-08 17:58:00
1:58 PM,63.7,39.0,40,30.22,10.0,North,8.1,-,N/A,,Clear,350,2013-11-08 18:58:00
2:58 PM,64.0,39.2,40,30.22,10.0,North,9.2,-,N/A,,Clear,350,2013-11-08 19:58:00
3:58 PM,63.5,39.7,42,30.22,10.0,NE,8.1,-,N/A,,Clear,50,2013-11-08 20:58:00
4:58 PM,60.6,42.1,50,30.22,10.0,NE,4.6,-,N/A,,Clear,40,2013-11-08 21:58:00
5:58 PM,51.6,45.7,80,30.23,10.0,Calm,Calm,-,N/A,,Clear,0,2013-11-08 22:58:00
6:58 PM,47.1,43.5,87,30.25,10.0,North,3.5,-,N/A,,Clear,350,2013-11-08 23:58:00
7:58 PM,44.4,43.0,95,30.26,10.0,NNE,3.5,-,N/A,,Clear,20,2013-11-09 00:58:00
8:58 PM,43.9,41.9,93,30.28,10.0,North,2.3,-,N/A,,Clear,360,2013-11-09 01:58:00
9:58 PM,43.3,41.2,92,30.28,10.0,NE,3.5,-,N/A,,Clear,40,2013-11-09 02:58:00
10:58 PM,41.9,38.8,89,30.28,10.0,NE,5.8,-,N/A,,Clear,50,2013-11-09 03:58:00
11:58 PM,43.5,38.3,82,30.28,10.0,NNE,2.3,-,N/A,,Clear,30,2013-11-09 04:58:00